timestamp,surface_pressure_avg,surface_temp_avg,battery_voltage,lat,long
2019-01-29 00:00:00+00:00,207.8214,1.0,12.81,47.84626,-54.09684
2019-01-29 00:10:00+00:00,217.1564,1.0,12.73,47.84626,-54.09684
2019-01-29 00:20:00+00:00,214.8897,1.0,12.81,47.84626,-54.09684
2019-01-29 00:30:00+00:00,204.1515,1.0,12.81,47.84626,-54.09684
2019-01-29 00:40:00+00:00,214.4731,1.0,12.89,47.84626,-54.09684
2019-01-29 00:50:00+00:00,220.7131,1.0,12.89,47.84626,-54.09684
2019-01-29 01:00:00+00:00,210.2331,0.9,12.81,47.84626,-54.09684
2019-01-29 01:10:00+00:00,205.7215,0.9,12.73,47.84626,-54.09684
2019-01-29 01:20:00+00:00,221.3897,0.97,12.81,47.84626,-54.09684
2019-01-29 01:30:00+00:00,231.0515,1.0,12.81,47.84626,-54.09684
2019-01-29 01:40:00+00:00,226.8081,1.0,12.89,47.84626,-54.09684
2019-01-29 01:50:00+00:00,225.0348,1.0,12.89,47.84626,-54.09684
2019-01-29 02:00:00+00:00,234.0865,1.06,12.81,47.84626,-54.09684
2019-01-29 02:10:00+00:00,237.3448,1.08,12.73,47.84626,-54.09684
2019-01-29 02:20:00+00:00,235.2898,1.0,12.81,47.84626,-54.09684
2019-01-29 02:30:00+00:00,238.8081,1.06,12.81,47.84626,-54.09684
2019-01-29 02:40:00+00:00,244.1131,1.0,12.89,47.84626,-54.09684
2019-01-29 02:50:00+00:00,239.1798,1.0,12.89,47.84626,-54.09684
2019-01-29 03:00:00+00:00,237.9964,0.9,12.81,47.84626,-54.09684
2019-01-29 03:10:00+00:00,248.3498,1.01,12.73,47.84626,-54.09684
2019-01-29 03:20:00+00:00,259.1681,1.0,12.81,47.84626,-54.09684
2019-01-29 03:30:00+00:00,262.6148,0.9,12.81,47.84626,-54.09684
2019-01-29 03:40:00+00:00,261.0164,0.9,12.89,47.84626,-54.09684
2019-01-29 03:50:00+00:00,272.5198,0.92,12.89,47.84626,-54.09684
2019-01-29 04:00:00+00:00,288.843,1.0,12.81,47.84626,-54.09684
2019-01-29 04:10:00+00:00,294.718,1.0,12.73,47.84626,-54.09684
2019-01-29 04:20:00+00:00,286.2398,1.0,12.81,47.84626,-54.09684
2019-01-29 04:30:00+00:00,289.9864,1.0,12.81,47.84626,-54.09684
2019-01-29 04:40:00+00:00,297.723,1.0,12.81,47.84626,-54.09684
2019-01-29 04:50:00+00:00,297.9163,1.0,12.89,47.84626,-54.09684
2019-01-29 05:00:00+00:00,300.948,1.0,12.81,47.84626,-54.09684
2019-01-29 05:10:00+00:00,311.103,1.05,12.73,47.84626,-54.09684
2019-01-29 05:20:00+00:00,319.278,1.08,12.81,47.84626,-54.09684
2019-01-29 05:30:00+00:00,313.0814,1.09,12.81,47.84626,-54.09684
2019-01-29 05:40:00+00:00,320.2996,1.1,12.81,47.84626,-54.09684
2019-01-29 05:50:00+00:00,329.913,1.1,12.89,47.84626,-54.09684
2019-01-29 06:00:00+00:00,333.0914,1.1,12.81,47.84626,-54.09684
2019-01-29 06:10:00+00:00,328.5646,1.1,12.73,47.84626,-54.09684
2019-01-29 06:20:00+00:00,322.4612,1.1,12.81,47.84626,-54.09684
2019-01-29 06:30:00+00:00,329.0764,1.1,12.81,47.84626,-54.09684
2019-01-29 06:40:00+00:00,331.0547,1.09,12.81,47.84626,-54.09684
2019-01-29 06:50:00+00:00,322.9197,1.07,12.81,47.84626,-54.09684
2019-01-29 07:00:00+00:00,321.4413,1.0,12.73,47.84626,-54.09684
2019-01-29 07:10:00+00:00,335.7797,0.89,12.73,47.84626,-54.09684
2019-01-29 07:20:00+00:00,333.113,0.8,12.81,47.84626,-54.09684
2019-01-29 07:30:00+00:00,319.9697,1.1,12.81,47.84626,-54.09684
2019-01-29 07:40:00+00:00,315.8113,0.78,12.81,47.84626,-54.09684
2019-01-29 07:50:00+00:00,315.1464,0.8,12.81,47.84626,-54.09684
2019-01-29 08:00:00+00:00,304.7397,1.0,12.73,47.84626,-54.09684
2019-01-29 08:10:00+00:00,303.9865,0.7,12.73,47.84626,-54.09684
2019-01-29 08:20:00+00:00,305.3547,0.93,12.81,47.84626,-54.09684
2019-01-29 08:30:00+00:00,296.0381,1.17,12.81,47.84626,-54.09684
2019-01-29 08:40:00+00:00,287.6863,1.2,12.81,47.84626,-54.09684
2019-01-29 08:50:00+00:00,289.7164,1.2,12.81,47.84626,-54.09684
2019-01-29 09:00:00+00:00,283.768,1.19,12.73,47.84626,-54.09684
2019-01-29 09:10:00+00:00,272.2364,1.1,12.65,47.84626,-54.09684
2019-01-29 09:20:00+00:00,266.0381,1.1,12.81,47.84626,-54.09684
2019-01-29 09:30:00+00:00,258.2397,1.1,12.81,47.84626,-54.09684
2019-01-29 09:40:00+00:00,244.5731,1.1,12.81,47.84626,-54.09684
2019-01-29 09:50:00+00:00,238.0914,1.1,12.81,47.84626,-54.09684
2019-01-29 10:00:00+00:00,234.9764,1.1,12.73,47.84626,-54.09684
2019-01-29 10:10:00+00:00,225.313,1.0,12.65,47.84626,-54.09684
2019-01-29 10:20:00+00:00,225.9197,0.92,12.73,47.84626,-54.09684
2019-01-29 10:30:00+00:00,226.9247,0.9,12.81,47.84626,-54.09684
2019-01-29 10:40:00+00:00,222.2598,0.9,12.81,47.84626,-54.09684
2019-01-29 10:50:00+00:00,214.8248,0.8,12.81,47.84626,-54.09684
2019-01-29 11:00:00+00:00,209.2398,0.8,12.73,47.84626,-54.09684
2019-01-29 11:10:00+00:00,206.1231,0.9,12.65,47.84626,-54.09684
2019-01-29 11:20:00+00:00,209.9932,0.8,12.73,47.84626,-54.09684
2019-01-29 11:30:00+00:00,213.3998,0.75,12.73,47.84626,-54.09684
2019-01-29 11:40:00+00:00,216.2348,0.99,12.81,47.84626,-54.09684
2019-01-29 11:50:00+00:00,216.6547,0.85,12.81,47.84626,-54.09684
2019-01-29 12:00:00+00:00,218.1731,1.0,12.73,47.84626,-54.09684
2019-01-29 12:10:00+00:00,221.6797,1.0,12.73,47.84626,-54.09684
2019-01-29 12:20:00+00:00,227.4248,1.0,12.81,47.84626,-54.09684
2019-01-29 12:30:00+00:00,229.3164,1.0,12.89,47.84626,-54.09684
2019-01-29 12:40:00+00:00,218.9081,1.0,12.89,47.84626,-54.09684
2019-01-29 12:50:00+00:00,213.0648,1.0,12.97,47.84626,-54.09684
2019-01-29 13:00:00+00:00,223.5281,1.0,13.05,47.84626,-54.09684
2019-01-29 13:10:00+00:00,224.0781,0.9,13.29,47.84626,-54.09684
2019-01-29 13:20:00+00:00,212.0464,0.96,13.84,47.84626,-54.09684
2019-01-29 13:30:00+00:00,214.1281,1.05,14.0,47.84626,-54.09684
2019-01-29 13:40:00+00:00,223.7531,1.1,14.08,47.84626,-54.09684
2019-01-29 13:50:00+00:00,227.6497,1.1,14.16,47.84626,-54.09684
2019-01-29 14:00:00+00:00,232.4649,1.1,14.32,47.84626,-54.09684
2019-01-29 14:10:00+00:00,234.5397,1.09,13.92,47.84626,-54.09684
2019-01-29 14:20:00+00:00,233.8047,1.1,13.92,47.84626,-54.09684
2019-01-29 14:30:00+00:00,233.0814,1.0,13.84,47.84626,-54.09684
2019-01-29 14:40:00+00:00,233.2647,0.9,13.92,47.84626,-54.09684
2019-01-29 14:50:00+00:00,236.4365,1.0,15.04,47.84626,-54.09684
2019-01-29 15:00:00+00:00,243.153,1.1,16.71,47.84626,-54.09684
2019-01-29 15:10:00+00:00,248.3164,1.18,15.91,47.84626,-54.09684
2019-01-29 15:20:00+00:00,254.9397,1.2,15.91,47.84626,-54.09684
2019-01-29 15:30:00+00:00,255.5531,1.24,15.67,47.84626,-54.09684
2019-01-29 15:40:00+00:00,256.8864,1.26,15.04,47.84626,-54.09684
2019-01-29 15:50:00+00:00,267.4164,1.27,14.8,47.84626,-54.09684
2019-01-29 16:00:00+00:00,277.0863,1.27,14.72,47.84626,-54.09684
2019-01-29 16:10:00+00:00,273.2448,1.28,14.64,47.84626,-54.09684
2019-01-29 16:20:00+00:00,270.0197,1.28,14.72,47.84626,-54.09684
2019-01-29 16:30:00+00:00,280.8881,1.28,14.72,47.84626,-54.09684
2019-01-29 16:40:00+00:00,285.8331,1.29,14.72,47.84626,-54.09684
2019-01-29 16:50:00+00:00,283.6697,1.29,14.64,47.84626,-54.09684
2019-01-29 17:00:00+00:00,287.5397,1.29,14.48,47.84626,-54.09684
2019-01-29 17:10:00+00:00,304.9547,1.3,14.32,47.84626,-54.09684
2019-01-29 17:20:00+00:00,307.7546,1.3,14.32,47.84626,-54.09684
2019-01-29 17:30:00+00:00,305.1796,1.3,14.32,47.84626,-54.09684
2019-01-29 17:40:00+00:00,303.5013,1.29,14.64,47.84626,-54.09684
2019-01-29 17:50:00+00:00,314.8797,1.3,14.72,47.84626,-54.09684
2019-01-29 18:00:00+00:00,316.5013,1.3,15.6,47.84626,-54.09684
2019-01-29 18:10:00+00:00,312.4913,1.3,14.96,47.84626,-54.09684
2019-01-29 18:20:00+00:00,318.2714,1.3,14.96,47.84626,-54.09684
2019-01-29 18:30:00+00:00,326.6097,1.3,14.88,47.84626,-54.09684
2019-01-29 18:40:00+00:00,323.528,1.3,14.88,47.84626,-54.09684
2019-01-29 18:50:00+00:00,322.0413,1.3,14.88,47.84626,-54.09684
2019-01-29 19:00:00+00:00,327.1595,1.3,14.72,47.84626,-54.09684
2019-01-29 19:10:00+00:00,328.573,1.3,14.64,47.84626,-54.09684
2019-01-29 19:20:00+00:00,319.2714,1.3,14.64,47.84626,-54.09684
2019-01-29 19:30:00+00:00,319.5264,1.3,14.64,47.84626,-54.09684
2019-01-29 19:40:00+00:00,316.6863,1.2,14.48,47.84626,-54.09684
2019-01-29 19:50:00+00:00,314.5547,1.2,14.32,47.84626,-54.09684
2019-01-29 20:00:00+00:00,316.3263,1.17,14.16,47.84626,-54.09684
2019-01-29 20:10:00+00:00,322.6878,1.1,13.92,47.84626,-54.09684
2019-01-29 20:20:00+00:00,322.6979,1.1,13.84,47.84626,-54.09684
2019-01-29 20:30:00+00:00,317.3663,1.1,13.76,47.84626,-54.09684
2019-01-29 20:40:00+00:00,317.863,1.1,13.68,47.84626,-54.09684
2019-01-29 20:50:00+00:00,317.6998,1.1,13.68,47.84626,-54.09684
2019-01-29 21:00:00+00:00,308.8464,1.1,13.53,47.84626,-54.09684
2019-01-29 21:10:00+00:00,299.0497,1.14,13.37,47.84626,-54.09684
2019-01-29 21:20:00+00:00,298.2713,1.1,13.29,47.84626,-54.09684
2019-01-29 21:30:00+00:00,297.393,1.2,13.29,47.84626,-54.09684
2019-01-29 21:40:00+00:00,286.1797,1.2,13.29,47.84626,-54.09684
2019-01-29 21:50:00+00:00,278.903,1.2,13.29,47.84626,-54.09684
2019-01-29 22:00:00+00:00,281.3846,1.23,13.13,47.84626,-54.09684
2019-01-29 22:10:00+00:00,280.6964,1.24,13.05,47.84626,-54.09684
2019-01-29 22:20:00+00:00,264.8497,1.2,13.13,47.84626,-54.09684
2019-01-29 22:30:00+00:00,247.3365,1.1,13.13,47.84626,-54.09684
2019-01-29 22:40:00+00:00,246.2631,1.1,13.13,47.84626,-54.09684
2019-01-29 22:50:00+00:00,256.3931,1.1,13.13,47.84626,-54.09684
2019-01-29 23:00:00+00:00,261.9731,1.1,13.05,47.84626,-54.09684
2019-01-29 23:10:00+00:00,253.168,1.1,12.97,47.84626,-54.09684
2019-01-29 23:20:00+00:00,248.733,1.1,13.05,47.84626,-54.09684
2019-01-29 23:30:00+00:00,248.6763,1.26,13.05,47.84626,-54.09684
2019-01-29 23:40:00+00:00,250.1681,1.29,13.05,47.84626,-54.09684
2019-01-29 23:50:00+00:00,248.3398,1.3,13.05,47.84626,-54.09684
